"Pseudo-MPEC" for P21JQEU

Created 2023 Sep 25 13:22:24 UT using Find_Orb

Click here for an explanation of pseudo-MPECs

 
 Astrometry: 
     P21JQEU* C2023 09 188kYx^n9bWE20.;AstrometryyAZ_qL@GFc#Gredacted;DSDTD$SF52
     P21JQEU  C2023 09 18\LlD]bDIrRqMyWEKQFr;#s9?7N$;'`AM^X5('a4FXbEiapuaBjo)F52
     P21JQEU  C2023 09 188u@fy6G9click1NRj=4q$Iq6epAUAcE_3(Qhere.H=b8UJl-n/B?F52
     P21JQEU  C2023 09 183E7Jd-*j(_el^JYfVAhs)'8_+^forFynhr'g/+Qq5uyN`EfeX,AOF52
     P21JQEU  C2023 09 18n)V`B;EexplanationCn9eftSP*!ox@d+XKLXA0'8K[s?G_:T5@^F52
     P21JQEU 1C2023 09 19.80355 18 37 44.07 +53 12 34.0    ~9JJq 21.1 VXNEOCP033
     P21JQEU 1C2023 09 19.80713 18 37 43.51 +53 12 36.8    ~9JJq 21.3 VXNEOCP033
     P21JQEU 1C2023 09 19.81071 18 37 42.93 +53 12 40.1    ~9JJq 21.3 VXNEOCP033
     P21JQEU 1C2023 09 20.84276 18 35 09.01 +53 27 53.9    ~9KKq 22.2 VXNEOCP033
     P21JQEU 1C2023 09 20.84635 18 35 08.47 +53 27 56.7    ~9KKq 22.2 VXNEOCP033
     P21JQEU 1C2023 09 20.84993 18 35 07.93 +53 28 00.1    ~9KKq 21.8 VXNEOCP033
     P21JQEU KC2023 09 25.14417 18 25 15.69 +54 27 24.4    ~9P5M 22.0 RoNEOCP291
     P21JQEU KC2023 09 25.15315 18 25 14.48 +54 27 31.1    ~9P5M 22.3 RoNEOCP291

Station data:
(033) Karl Schwarzschild Observatory, Tautenburg  (N50.980137 E11.711240)
   Germany.  Observer B. Stecklum. 1.34-m f/3 Schmidt + CCD.
(291) LPL/Spacewatch II  (N31.961669 W111.599905)  US/Arizona.  Observers J.
   V. Scotti, R. S. McMillan. 1.8-m f/2.7 reflector + CCD.
(F52) Pan-STARRS 2, Haleakala  (N20.707382 W156.255910)  US/Hawaii.
   Observers J. Bulger, T. Dukes, T. Lowe, A. Schultz, M. Willman. Measurers
   K. Chambers, S. Chastel, T. de Boer, L. Denneau, J. Fairlamb, H.
   Flewelling, M. Huber, C.-C. Lin, E. Magnier, Y. Ramanjooloo, R. Wainscoat,
   R. Weryk. 1.8-m Ritchey-Chrétien + CCD.

Orbital elements:  P21JQEU
   Perihelion 2023 Nov 2.00846 +/- 0.196 TT =  0:12:10 (JD 2460250.50846)
Epoch 2023 Sep 25.0 TT = JDT 2460212.5   Earth MOID: 0.3083      AutoNEOCP
M 345.28546183 +/- 0.48             (J2000 ecliptic)
n   0.38713850 +/- 0.0108           Peri.  104.42379 +/- 0.28
a   1.86448316 +/- 0.0347           Node   292.12283 +/- 0.046
e   0.4227801 +/- 0.0089            Incl.   27.94245 +/- 0.36
P   2.55/929.88d           H 21.02  G  0.15   U  9.7
q 1.07621671 +/- 0.00346    Q 2.65274961 +/- 0.066
From 13 observations 2023 Sept. 18-25; mean residual 0".18
Residuals in arcseconds: 
230918 F52  .20-  .12+    230919 033  .08-  .08+    230920 033  .06+  .13+    
230918 F52  .19-  .12-    230919 033  .02-  .27-    230925 291  .13-  .08+    
230918 F52  .63+  .03-    230919 033  .13-  .12-    230925 291  .18+  .02+    
230918 F52  .14-  .05-    230920 033  .09-  .05-    
230918 F52  .06-  .14+    230920 033  .00   .27-    

Ephemerides (geocentric):
Date (UTC) HH   RA             Dec           delta  r     elong  mag " sig PA
---- --------  ------------   ------------  ------ ------ -----  --- --------
2023 09 25 13  18 24 25.401   +54 32 31.89  .50550 1.1477  93.1 22.0 .190 168
2023 09 25 14  18 24 20.081   +54 33 04.56  .50556 1.1475  93.1 22.0 .195 171
2023 09 25 15  18 24 14.768   +54 33 37.21  .50562 1.1474  93.1 22.0 .199 174
2023 09 25 16  18 24 09.462   +54 34 09.83  .50568 1.1472  93.1 22.0 .205 176
2023 09 25 17  18 24 04.163   +54 34 42.42  .50574 1.1471  93.1 22.0 .210 179
2023 09 25 18  18 23 58.870   +54 35 15.00  .50579 1.1469  93.0 22.0 .216   1
2023 09 25 19  18 23 53.584   +54 35 47.54  .50585 1.1468  93.0 22.0 .223   4
2023 09 25 20  18 23 48.305   +54 36 20.07  .50591 1.1466  93.0 22.0 .230   6
2023 09 25 21  18 23 43.033   +54 36 52.57  .50597 1.1465  93.0 22.0 .238   8
2023 09 25 22  18 23 37.767   +54 37 25.04  .50603 1.1463  93.0 22.0 .246  11
2023 09 25 23  18 23 32.508   +54 37 57.50  .50608 1.1462  92.9 22.0 .254  13
2023 09 26 00  18 23 27.255   +54 38 29.93  .50614 1.1460  92.9 22.0 .263  15
2023 09 26 01  18 23 22.009   +54 39 02.33  .50620 1.1459  92.9 22.0 .272  16
2023 09 26 02  18 23 16.770   +54 39 34.71  .50626 1.1457  92.9 22.0 .281  18
2023 09 26 03  18 23 11.537   +54 40 07.07  .50631 1.1456  92.8 22.0 .291  20
2023 09 26 04  18 23 06.312   +54 40 39.41  .50637 1.1454  92.8 22.0 .302  21
2023 09 26 05  18 23 01.092   +54 41 11.72  .50643 1.1453  92.8 22.0 .312  23
2023 09 26 06  18 22 55.880   +54 41 44.01  .50648 1.1451  92.8 22.0 .323  24
2023 09 26 07  18 22 50.674   +54 42 16.27  .50654 1.1450  92.8 22.0 .335  26
2023 09 26 08  18 22 45.474   +54 42 48.52  .50660 1.1448  92.7 22.0 .346  27
2023 09 26 09  18 22 40.282   +54 43 20.74  .50665 1.1447  92.7 22.0 .358  28
2023 09 26 10  18 22 35.095   +54 43 52.94  .50671 1.1445  92.7 22.0 .371  30
2023 09 26 11  18 22 29.916   +54 44 25.12  .50676 1.1444  92.7 22.0 .383  31
2023 09 26 12  18 22 24.743   +54 44 57.27  .50682 1.1442  92.7 22.0 .396  32
2023 09 26 13  18 22 19.577   +54 45 29.40  .50688 1.1441  92.6 22.0 .410  33
2023 09 26 14  18 22 14.417   +54 46 01.51  .50693 1.1440  92.6 22.0 .423  34
2023 09 26 15  18 22 09.264   +54 46 33.60  .50699 1.1438  92.6 22.0 .437  35
2023 09 26 16  18 22 04.117   +54 47 05.67  .50704 1.1437  92.6 22.0 .451  36
2023 09 26 17  18 21 58.977   +54 47 37.71  .50710 1.1435  92.5 22.0 .466  37
2023 09 26 18  18 21 53.844   +54 48 09.74  .50715 1.1434  92.5 22.0 .481  38
2023 09 26 19  18 21 48.717   +54 48 41.74  .50721 1.1432  92.5 22.0 .496  38
2023 09 26 20  18 21 43.596   +54 49 13.72  .50726 1.1431  92.5 22.0 .511  39
2023 09 26 21  18 21 38.483   +54 49 45.68  .50732 1.1429  92.5 22.0 .527  40
2023 09 26 22  18 21 33.375   +54 50 17.62  .50737 1.1428  92.4 22.0 .543  41
2023 09 26 23  18 21 28.275   +54 50 49.54  .50743 1.1426  92.4 22.0 .559  41
2023 09 27 00  18 21 23.180   +54 51 21.43  .50748 1.1425  92.4 22.0 .575  42
2023 09 27 01  18 21 18.093   +54 51 53.31  .50754 1.1424  92.4 22.0 .592  43
2023 09 27 02  18 21 13.012   +54 52 25.17  .50759 1.1422  92.4 22.0 .609  43
2023 09 27 03  18 21 07.937   +54 52 57.00  .50764 1.1421  92.3 22.0 .627  44
2023 09 27 04  18 21 02.869   +54 53 28.82  .50770 1.1419  92.3 22.0 .645  44
2023 09 27 05  18 20 57.807   +54 54 00.61  .50775 1.1418  92.3 22.0 .663  45
2023 09 27 06  18 20 52.752   +54 54 32.39  .50780 1.1416  92.3 22.0 .681  46
2023 09 27 07  18 20 47.703   +54 55 04.14  .50786 1.1415  92.3 22.0 .699  46
2023 09 27 08  18 20 42.661   +54 55 35.88  .50791 1.1413  92.2 22.0 .718  47
2023 09 27 09  18 20 37.626   +54 56 07.59  .50796 1.1412  92.2 22.0 .737  47
2023 09 27 10  18 20 32.596   +54 56 39.29  .50802 1.1410  92.2 22.0 .757  48
2023 09 27 11  18 20 27.574   +54 57 10.96  .50807 1.1409  92.2 22.0 .776  48
2023 09 27 12  18 20 22.557   +54 57 42.62  .50812 1.1408  92.2 22.0 .796  48